FW5295 Weather Reports


time (UTC)temp
F
wind
direction
speed
knots
gust
knots
rain 1hr
in
rain 24hr
in
rain mn
in
humidity
%
barometer
mb
20260506202454 55 288 3.5 10.4 0.00 0.00 0.00 39 1012.5
20260506201953 55 278 7.0 10.4 0.00 0.00 0.00 41 1012.5
20260506201452 55 226 3.5 15.6 0.00 0.00 0.00 42 1012.9
20260506200951 55 250 3.5 15.6 0.00 0.00 0.00 42 1012.5
20260506200454 54 232 2.6 9.6 0.00 0.00 0.00 43 1012.5
20260506195951 53 265 3.5 9.6 0.00 0.00 0.00 44 1012.9
20260506195452 53 335 1.7 7.8 0.00 0.00 0.00 45 1012.9
20260506194950 53 302 3.5 10.4 0.00 0.00 0.00 44 1012.9
20260506194449 53 237 5.2 10.4 0.00 0.00 0.00 42 1012.9
20260506193949 53 240 2.6 5.2 0.00 0.00 0.00 48 1012.9
20260506193451 53 198 0.0 12.2 0.00 0.00 0.00 38 1012.9
20260506192948 54 237 4.3 12.2 0.00 0.00 0.00 36 1012.9
20260506192452 55 276 4.3 11.3 0.00 0.00 0.00 40 1012.9
20260506192430 55 203 2.6 13.0 0.00 0.00 0.00 37 1012.9
20260506191449 55 227 3.5 13.0 0.00 0.00 0.00 33 1012.9
20260506190945 55 266 5.2 11.3 0.00 0.00 0.00 41 1012.9
20260506190446 55 237 2.6 9.6 0.00 0.00 0.00 36 1012.9
20260506185945 54 257 7.0 12.2 0.00 0.00 0.00 38 1012.9
20260506185802 54 263 2.6 12.2 0.00 0.00 0.00 36 1012.9
20260506185428 55 237 4.3 9.6 0.00 0.00 0.00 38 1012.9
20260506184441 54 359 1.7 9.6 0.00 0.00 0.00 40 1012.9
20260506183940 55 267 3.5 7.0 0.00 0.00 0.00 42 1012.9
20260506183440 54 202 5.2 11.3 0.00 0.00 0.00 42 1012.9
20260506183402 53 256 7.8 11.3 0.00 0.00 0.00 39 1012.9
20260506182425 53 216 5.2 9.6 0.00 0.00 0.00 43 1013.3
20260506181912 53 172 3.5 8.7 0.00 0.00 0.00 43 1013.3
20260506181411 53 235 3.5 7.8 0.00 0.00 0.00 40 1012.9
20260506180909 53 285 3.5 7.8 0.00 0.00 0.00 40 1012.9
20260506180409 52 289 1.7 7.0 0.00 0.00 0.00 44 1012.9
20260506180130 52 358 1.7 7.8 0.00 0.00 0.00 43 1013.3
20260506175408 52 339 4.3 7.8 0.00 0.00 0.00 42 1012.9
20260506174909 52 302 4.3 8.7 0.00 0.00 0.00 41 1012.9
20260506174409 52 336 2.6 13.0 0.00 0.00 0.00 43 1012.9
20260506173906 52 308 3.5 13.0 0.00 0.00 0.00 43 1012.9
20260506173406 52 238 5.2 12.2 0.00 0.00 0.00 43 1013.3
20260506172907 52 217 1.7 12.2 0.00 0.00 0.00 41 1013.3
20260506172406 53 231 3.5 7.8 0.00 0.00 0.00 41 1013.3
20260506172132 53 229 4.3 11.3 0.00 0.00 0.00 41 1013.3
20260506171404 52 275 7.0 11.3 0.00 0.00 0.00 42 1013.3
20260506170902 52 205 1.7 8.7 0.00 0.00 0.00 43 1013.3
20260506170403 52 260 5.2 7.8 0.00 0.00 0.00 42 1013.3
20260506165901 52 189 4.3 7.0 0.00 0.00 0.00 43 1013.3
20260506165404 52 294 2.6 10.4 0.00 0.00 0.00 42 1013.3
20260506164902 53 228 6.1 10.4 0.00 0.00 0.00 42 1013.7
20260506164402 52 251 2.6 10.4 0.00 0.00 0.00 46 1013.7
20260506164346 52 240 2.6 10.4 0.00 0.00 0.00 42 1013.3
20260506163403 53 240 4.3 7.8 0.00 0.00 0.00 41 1013.3
20260506162912 53 2 2.6 7.8 0.00 0.00 0.00 48 1012.9
20260506162413 52 232 3.5 7.8 0.00 0.00 0.00 45 1013.3
20260506161858 52 224 1.7 7.8 0.00 0.00 0.00 42 1013.7
20260506161358 52 4 3.5 7.8 0.00 0.00 0.00 43 1013.3
20260506160857 52 281 3.5 7.8 0.00 0.00 0.00 40 1013.3
20260506160358 52 223 1.7 7.8 0.00 0.00 0.00 44 1013.3
20260506155855 52 336 1.7 5.2 0.00 0.00 0.00 44 1013.3
20260506155355 52 240 5.2 7.0 0.00 0.00 0.00 43 1013.3
20260506154856 52 78 0.9 8.7 0.00 0.00 0.00 43 1013.3
20260506154355 52 215 1.7 8.7 0.00 0.00 0.00 44 1013.7
20260506153855 52 248 3.5 7.0 0.00 0.00 0.00 49 1013.7
20260506153353 51 189 0.0 7.0 0.00 0.00 0.00 48 1013.3
20260506152852 51 211 2.6 5.2 0.00 0.00 0.00 50 1013.3
20260506152356 50 277 1.7 7.0 0.00 0.00 0.00 44 1013.7
20260506151851 50 225 3.5 7.0 0.00 0.00 0.00 46 1013.3
20260506151351 50 132 3.5 7.8 0.00 0.00 0.00 43 1013.7
20260506151116 51 228 7.0 7.8 0.00 0.00 0.00 46 1013.3
20260506150351 51 5 0.9 7.0 0.00 0.00 0.00 46 1013.3
20260506150115 51 339 1.7 7.0 0.00 0.00 0.00 46 1013.7
20260506145349 51 226 3.5 5.2 0.00 0.00 0.00 46 1013.3
20260506144848 50 233 4.3 5.2 0.00 0.00 0.00 46 1013.7
20260506144350 50 229 2.6 4.3 0.00 0.00 0.00 55 1013.7
20260506143848 49 328 3.5 4.3 0.00 0.00 0.00 51 1013.7
20260506143351 49 205 2.6 5.2 0.00 0.00 0.00 54 1013.7
20260506142847 48 292 1.7 5.2 0.00 0.00 0.00 55 1013.7
20260506142400 48 249 4.3 5.2 0.00 0.00 0.00 53 1013.7
20260506142107 48 212 0.0 5.2 0.00 0.00 0.00 56 1013.7
20260506141345 49 249 2.6 7.0 0.00 0.00 0.00 57 1013.7
20260506140843 49 295 1.7 7.0 0.00 0.00 0.00 54 1013.7
20260506140357 49 284 1.7 6.1 0.00 0.00 0.00 50 1013.7
20260506135842 49 289 2.6 4.3 0.00 0.00 0.00 54 1013.7
20260506135343 49 190 0.9 7.0 0.00 0.00 0.00 53 1013.7
20260506134843 49 226 0.9 7.0 0.00 0.00 0.00 50 1013.3
20260506134608 49 236 2.6 3.5 0.00 0.00 0.00 52 1013.3
20260506133840 49 195 1.7 3.5 0.00 0.00 0.00 50 1012.9
20260506133341 49 239 1.7 3.5 0.00 0.00 0.00 53 1012.9
20260506132839 48 173 0.9 2.6 0.00 0.00 0.00 56 1012.9
20260506132339 48 249 1.7 3.5 0.00 0.00 0.00 56 1013.3
20260506131838 48 177 0.9 3.5 0.00 0.00 0.00 55 1012.5
20260506131340 48 180 1.7 5.2 0.00 0.00 0.00 52 1012.5
20260506130838 48 139 3.5 5.2 0.00 0.00 0.00 54 1012.5
20260506130338 47 138 0.0 5.2 0.00 0.00 0.00 58 1012.5
20260506125836 46 154 3.5 5.2 0.00 0.00 0.00 58 1012.5
20260506125339 46 178 1.7 2.6 0.00 0.00 0.00 61 1012.5
20260506124836 45 248 1.7 1.7 0.00 0.00 0.00 62 1012.9
20260506124337 44 125 1.7 1.7 0.00 0.00 0.00 66 1012.5
20260506123834 43 243 0.0 1.7 0.00 0.00 0.00 71 1012.5
20260506123334 42 315 0.0 1.7 0.00 0.00 0.00 73 1012.5
20260506123100 41 208 0.0 0.9 0.00 0.00 0.00 79 1012.2
20260506122334 41 73 0.9 0.9 0.00 0.00 0.00 79 1012.2
20260506121834 41 55 0.0 0.0 0.00 0.00 0.00 79 1012.2
20260506121333 41 44 0.0 0.9 0.00 0.00 0.00 79 1012.2
20260506120831 40 66 0.0 0.9 0.00 0.00 0.00 79 1011.9
20260506120335 40 64 0.0 0.9 0.00 0.00 0.00 78 1011.9
20260506115831 40 110 0.0 0.9 0.00 0.00 0.00 79 1011.9
20260506115330 40 32 0.0 0.9 0.00 0.00 0.00 80 1011.9
20260506115112 39 49 0.0 0.9 0.00 0.00 0.00 81 1011.9
20260506114333 39 76 0.0 1.7 0.00 0.00 0.00 81 1011.9
20260506114054 38 22 0.0 1.7 0.00 0.00 0.00 80 1011.9
20260506113329 38 38 0.9 1.7 0.00 0.00 0.00 82 1011.5
20260506112827 37 22 0.0 0.9 0.00 0.00 0.00 82 1011.9
20260506112328 37 310 0.0 0.9 0.00 0.00 0.00 82 1011.9
20260506111826 37 60 0.0 0.9 0.00 0.00 0.00 82 1011.9
20260506111326 37 53 0.0 1.7 0.00 0.00 0.00 81 1011.9
20260506110826 37 27 0.0 1.7 0.00 0.00 0.00 81 1011.5
20260506110327 37 44 0.0 0.9 0.00 0.00 0.00 81 1011.9
20260506105823 37 32 0.0 0.9 0.00 0.00 0.00 81 1011.9
20260506105324 37 39 0.0 0.9 0.00 0.00 0.00 80 1011.9
20260506104823 37 32 0.0 0.9 0.00 0.00 0.00 80 1011.5
20260506104323 37 32 0.0 0.9 0.00 0.00 0.00 79 1011.5
20260506103823 37 29 0.0 0.9 0.00 0.00 0.00 79 1011.5
20260506103800 37 353 0.0 0.9 0.00 0.00 0.00 79 1011.5
20260506102822 38 28 0.0 0.9 0.00 0.00 0.00 78 1011.2
20260506102322 38 19 0.0 1.7 0.00 0.00 0.00 77 1011.2
20260506101821 38 336 0.0 1.7 0.00 0.00 0.00 76 1011.2
20260506101544 38 329 0.0 1.7 0.00 0.00 0.00 75 1011.2
20260506100818 38 324 0.0 1.7 0.00 0.00 0.00 75 1011.2
20260506100318 38 2 0.9 1.7 0.00 0.00 0.00 75 1010.9
20260506100039 38 32 0.0 1.7 0.00 0.00 0.00 75 1010.9
20260506095318 38 313 0.0 1.7 0.00 0.00 0.00 76 1010.9
20260506095241 38 4 0.0 1.7 0.00 0.00 0.00 76 1010.9
20260506094906 38 342 0.0 1.7 0.00 0.00 0.00 75 1010.9
20260506093818 38 335 0.0 1.7 0.00 0.00 0.00 77 1011.2
20260506093315 38 336 0.0 0.9 0.00 0.00 0.00 77 1010.9
20260506092815 38 33 0.9 0.9 0.00 0.00 0.00 77 1010.9
20260506092317 38 341 0.0 0.9 0.00 0.00 0.00 77 1010.9
20260506091814 38 22 0.0 1.7 0.00 0.00 0.00 76 1010.9
20260506091315 38 353 0.9 1.7 0.00 0.00 0.00 76 1011.2
20260506091304 38 313 0.9 1.7 0.00 0.00 0.00 76 1010.9
20260506090314 38 31 1.7 2.6 0.00 0.00 0.00 77 1010.9
20260506085813 38 25 1.7 2.6 0.00 0.00 0.00 74 1010.9
20260506085537 38 358 0.9 1.7 0.00 0.00 0.00 76 1010.9
20260506084812 38 3 0.9 0.9 0.00 0.00 0.00 75 1011.2
20260506084310 38 355 0.0 1.7 0.00 0.00 0.00 75 1011.2
20260506083811 38 337 0.0 1.7 0.00 0.00 0.00 74 1011.2
20260506083311 39 0 0.9 1.7 0.00 0.00 0.00 74 1010.9
20260506082811 39 9 0.0 1.7 0.00 0.00 0.00 73 1010.9
20260506082310 39 9 1.7 1.7 0.00 0.00 0.00 74 1010.9
20260506082032 39 15 1.7 1.7 0.00 0.00 0.00 72 1010.9
20260506081307 39 3 0.9 1.7 0.00 0.00 0.00 73 1010.5
20260506080807 39 6 0.9 1.7 0.00 0.00 0.00 73 1010.9
20260506080307 39 44 0.0 1.7 0.00 0.00 0.00 71 1010.5
20260506073303 41 9 0.9 1.7 0.00 0.00 0.00 69 1010.5
20260506073240 41 45 0.0 1.7 0.00 0.00 0.00 68 1010.9
20260506072305 41 22 1.7 1.7 0.00 0.00 0.00 67 1010.9
20260506071801 42 37 0.0 1.7 0.00 0.00 0.00 67 1010.5
20260506071302 42 29 0.0 1.7 0.00 0.00 0.00 66 1010.2
20260506070800 43 89 0.0 1.7 0.00 0.00 0.00 65 1010.2
20260506070300 43 39 0.0 1.7 0.00 0.00 0.00 63 1010.5
20260506061754 45 28 1.7 3.5 0.00 0.00 0.00 55 1010.9
20260506061522 45 89 0.0 3.5 0.00 0.00 0.00 55 1010.5
20260506060753 45 23 3.5 3.5 0.00 0.00 0.00 56 1010.5
20260506060254 45 33 2.6 3.5 0.00 0.00 0.00 56 1010.5
20260506051248 46 118 0.0 1.7 0.00 0.00 0.00 60 1010.2
20260506050751 46 38 0.0 1.7 0.00 0.00 0.00 59 1010.2
20260506050249 46 304 0.0 0.0 0.00 0.00 0.00 59 1010.2
20260506044842 47 355 0.9 2.6 0.00 0.00 0.00 59 1009.8
20260506043745 47 15 0.9 2.6 0.00 0.00 0.00 59 1009.8
20260506043245 47 11 0.9 1.7 0.00 0.00 0.00 58 1009.8
20260506042744 47 55 0.0 0.9 0.00 0.00 0.00 66 1010.2
20260506042503 47 124 0.0 0.9 0.00 0.00 0.00 63 1010.2
20260506042012 48 124 0.0 0.9 0.00 0.00 0.00 56 1010.2
20260506041244 48 72 0.0 1.7 0.00 0.00 0.00 59 1010.2
20260506040741 48 66 0.0 1.7 0.00 0.00 0.00 57 1010.2
20260506040243 48 55 0.9 1.7 0.00 0.00 0.00 57 1010.2
20260506035741 49 108 1.7 1.7 0.00 0.00 0.00 54 1010.2
20260506035242 49 17 0.0 1.7 0.00 0.00 0.00 53 1009.8
20260506034738 49 0 0.9 1.7 0.00 0.00 0.00 53 1009.8
20260506034511 49 22 0.0 2.6 0.00 0.00 0.00 54 1009.8
20260506034004 49 333 1.7 2.6 0.00 0.00 0.00 54 1009.8
20260506033239 49 64 0.0 1.7 0.00 0.00 0.00 54 1009.8
20260506033003 49 141 0.0 1.7 0.00 0.00 0.00 52 1009.8
20260506032242 49 59 0.9 3.5 0.00 0.00 0.00 54 1009.8
20260506031737 49 42 1.7 3.5 0.00 0.00 0.00 56 1009.4
20260506031236 48 40 1.7 2.6 0.00 0.00 0.00 54 1009.4
20260506030739 48 4 0.9 2.6 0.00 0.00 0.00 60 1009.4
20260506030238 47 23 0.9 1.7 0.00 0.00 0.00 68 1009.4
20260506025734 47 87 0.9 1.7 0.00 0.00 0.00 67 1009.4
20260506025235 47 53 0.9 1.7 0.00 0.00 0.00 65 1009.4
20260506024734 48 68 1.7 1.7 0.00 0.00 0.00 64 1009.1
20260506024235 48 66 0.9 1.7 0.00 0.00 0.00 61 1009.1
20260506023732 48 32 0.0 1.7 0.00 0.00 0.00 59 1009.4
20260506023233 48 135 0.0 0.9 0.00 0.00 0.00 62 1009.1
20260506022735 48 145 0.9 0.9 0.00 0.00 0.00 59 1009.1
20260506022231 48 89 0.0 0.9 0.00 0.00 0.00 62 1009.1
20260506021730 48 49 0.0 0.9 0.00 0.00 0.00 62 1009.1
20260506021233 49 58 0.0 0.9 0.00 0.00 0.00 59 1009.1
20260506020729 49 135 0.0 0.9 0.00 0.00 0.00 64 1009.1
20260506020230 49 134 0.0 0.9 0.00 0.00 0.00 59 1008.7
20260506015734 49 77 0.0 0.9 0.00 0.00 0.00 58 1008.7
20260506015233 49 39 0.0 0.9 0.00 0.00 0.00 55 1008.7
20260506014728 50 55 0.0 1.7 0.00 0.00 0.00 56 1008.7
20260506014229 50 92 0.9 1.7 0.00 0.00 0.00 53 1008.7
20260506013727 50 124 0.0 0.9 0.00 0.00 0.00 52 1008.7
20260506013233 51 66 0.0 0.9 0.00 0.00 0.00 57 1008.4
20260506012725 51 55 0.0 0.9 0.00 0.00 0.00 53 1008.4
20260506012227 51 53 0.0 0.9 0.00 0.00 0.00 51 1008.0
20260506011949 51 147 0.0 0.9 0.00 0.00 0.00 49 1008.0
20260506011226 51 67 0.0 1.7 0.00 0.00 0.00 48 1008.0
20260506010736 51 91 0.0 1.7 0.00 0.00 0.00 51 1008.4
20260506010224 52 55 0.0 1.7 0.00 0.00 0.00 47 1008.0
20260506005722 52 54 0.0 1.7 0.00 0.00 0.00 46 1008.0
20260506005222 52 166 0.9 1.7 0.00 0.00 0.00 44 1008.0
20260506004721 52 357 0.0 2.6 0.00 0.00 0.00 44 1008.0
20260506004442 53 38 0.0 2.6 0.00 0.00 0.00 45 1008.0
20260506003720 53 320 0.0 1.7 0.00 0.00 0.00 43 1007.7
20260506003220 53 17 0.9 2.6 0.00 0.00 0.00 43 1007.7
20260506002718 53 315 0.0 3.5 0.00 0.00 0.00 45 1007.7
20260506002223 53 75 0.0 3.5 0.00 0.00 0.00 44 1007.7
20260506001717 53 47 1.7 2.6 0.00 0.00 0.00 44 1007.7
20260506001219 53 317 2.6 2.6 0.00 0.00 0.00 43 1007.7
20260506000944 53 38 0.0 2.6 0.00 0.00 0.00 43 1007.7
20260506000227 54 278 0.0 3.5 0.00 0.00 0.00 45 1007.7
20260506000219 53 327 0.9 3.5 0.00 0.00 0.00 43 1007.7
20260505235217 54 40 0.0 4.3 0.00 0.00 0.00 43 1007.7
20260505234715 54 138 4.3 4.3 0.00 0.00 0.00 43 1007.7
20260505234214 54 37 1.7 3.5 0.00 0.00 0.00 43 1007.7
20260505233713 54 319 0.0 3.5 0.00 0.00 0.00 43 1007.7
20260505233214 54 85 1.7 5.2 0.00 0.00 0.00 42 1007.7
20260505232714 54 339 1.7 5.2 0.00 0.00 0.00 41 1007.7
20260505232213 55 317 3.5 4.3 0.00 0.00 0.00 42 1007.7
20260505231712 54 295 1.7 3.5 0.00 0.00 0.00 41 1007.7
20260505231211 54 150 0.0 7.0 0.00 0.00 0.00 42 1007.7
20260505230711 54 176 0.9 7.0 0.00 0.00 0.00 44 1007.7
20260505230210 54 35 1.7 7.0 0.00 0.00 0.00 42 1007.7
20260505225709 54 191 2.6 7.0 0.00 0.00 0.00 44 1007.7
20260505225210 54 319 0.9 4.3 0.00 0.00 0.00 40 1008.0
20260505224711 54 302 4.3 4.3 0.00 0.00 0.00 40 1008.0
20260505224222 54 60 0.0 4.3 0.00 0.00 0.00 43 1008.0
20260505223710 54 243 1.7 4.3 0.00 0.00 0.00 39 1008.4
20260505223208 54 335 1.7 5.2 0.00 0.00 0.00 39 1008.0
20260505222705 54 196 1.7 7.8 0.00 0.01 0.00 41 1008.0
20260505222218 54 334 1.7 5.2 0.00 0.11 0.00 40 1008.0
20260505222209 54 314 0.9 7.8 0.00 0.03 0.00 40 1008.0
20260505221219 54 280 1.7 5.2 0.00 0.11 0.00 41 1008.0
20260505220704 54 293 2.6 4.3 0.00 0.11 0.00 38 1008.0
20260505220204 54 337 1.7 5.2 0.00 0.11 0.00 39 1008.0
20260505215701 54 297 0.0 5.2 0.00 0.11 0.00 40 1008.0
20260505215424 54 258 1.7 5.2 0.00 0.11 0.00 37 1008.4
20260505214703 54 208 1.7 5.2 0.00 0.11 0.00 39 1008.4
20260505214202 54 296 1.7 5.2 0.00 0.11 0.00 40 1008.4
20260505213700 54 311 2.6 6.1 0.00 0.11 0.00 38 1008.0
20260505213201 54 216 1.7 6.1 0.00 0.11 0.00 38 1008.0
20260505213149 54 320 0.0 5.2 0.00 0.11 0.00 38 1008.0
20260505212425 54 321 0.9 5.2 0.00 0.11 0.00 36 1008.0
20260505211659 55 176 1.7 5.2 0.00 0.11 0.00 40 1008.0
20260505211159 55 220 2.6 6.1 0.00 0.11 0.00 38 1008.0
20260505210918 55 263 0.9 7.0 0.00 0.11 0.00 38 1008.0
20260505210157 55 177 2.6 7.0 0.00 0.11 0.00 38 1008.0
20260505205656 55 309 1.7 5.2 0.00 0.11 0.00 39 1008.0
20260505205156 54 221 1.7 6.1 0.00 0.11 0.00 38 1008.0
20260505204654 54 253 3.5 6.1 0.00 0.11 0.00 39 1008.0
20260505204157 54 259 3.5 5.2 0.00 0.11 0.00 36 1008.0
20260505203655 54 351 2.6 4.3 0.00 0.11 0.00 38 1008.4
20260505203154 54 123 1.7 7.0 0.00 0.11 0.00 39 1008.4